Content
SEND FEEDBACK

Daily
Averages
Monthly
Summary
United States of America

NEW YORK - UPPER EAST SIDE, NEW YORK


Home > North America > United States > New York
Elevation: 132 feet     Latitude: 40 47N     Longitude: 073 58W

WEATHER
 
SELECT A DAY
Number of Records: 150,506;   Date Range: 11/1/95 - 9/29/14
 
SHARE

PRINT THIS DATA

[ ← Previous Day ]
WEATHER ALMANAC - SEPTEMBER 15, 2013
[ Next Day → ]
[ °C ]   °F
Weather ElementAverageHighLow
Temperature62.1 °F71.1 °F (1:51 pm)51.1 °F (6:51 am)
Dewpoint44 °F51.1 °F (7:51 pm)37.9 °F (2:51 pm)
Humidity53.6 %74 % (4:51 am)31 % (2:51 pm)
Barometer30.15 in30.22 in (9:51 am)30.09 in (6:51 pm)
Wind Speed3.8 mph5.8 mph (1:51 pm)
Weather ElementAverage
Visibility10 mi
Wind DirectionENE (83.5 °)

Weather ElementTotal
Precipitation---
Heating Degree Days3.9 (Base 65)
Growing Degree Days11.1 (Base 50)
Averaged from 23 records on September 15, 2013
WEATHER CONDITIONS BREAKOUT
WIND DIRECTION BREAKOUT
WEATHER BY HOUR - SEPTEMBER 15, 2013
[ °C ]   °F
Local TimeTemperatureDewpointHumidityBarometerVisibilityWind DirectionWind SpeedGust SpeedPrecipitationEventsConditions
1:51 AM55.0 °F43.0 °F64 %30.14 in10.0 miCalmClear
2:51 AM54.0 °F43.0 °F66 %30.14 in10.0 miWNW (300°)3.5 mphClear
3:51 AM54.0 °F43.0 °F66 %30.15 in10.0 miVariable4.6 mphClear
4:51 AM52.0 °F44.1 °F74 %30.16 in10.0 miCalmClear
5:51 AM52.0 °F43.0 °F71 %30.17 in10.0 miWNW (290°)4.6 mphClear
6:51 AM51.1 °F43.0 °F74 %30.19 in10.0 miWNW (290°)4.6 mphClear
7:51 AM52.0 °F43.0 °F71 %30.19 in10.0 miVariable4.6 mphClear
8:51 AM55.0 °F43.0 °F64 %30.21 in10.0 miVariable4.6 mphClear
9:51 AM59.0 °F43.0 °F55 %30.22 in10.0 miVariable4.6 mphClear
10:51 AM62.1 °F43.0 °F50 %30.21 in10.0 miVariable3.5 mphClear
11:51 AM66.9 °F39.9 °F37 %30.20 in10.0 miNorthClear
12:51 PM69.1 °F41.0 °F36 %30.18 in10.0 miWest (270°)4.6 mphClear
1:51 PM71.1 °F39.9 °F32 %30.16 in10.0 miVariable5.8 mphClear
2:51 PM70.0 °F37.9 °F31 %30.14 in10.0 miWest (280°)5.8 mphClear
3:51 PM71.1 °F42.1 °F35 %30.12 in10.0 miVariable3.5 mphClear
4:51 PM70.0 °F41.0 °F35 %30.11 in10.0 miVariable5.8 mphClear
5:51 PM69.1 °F44.1 °F40 %30.10 in10.0 miVariable5.8 mphClear
6:51 PM66.9 °F48.9 °F52 %30.09 in10.0 miVariable3.5 mphClear
7:51 PM64.9 °F51.1 °F61 %30.10 in10.0 miCalmClear
8:51 PM66.0 °F48.0 °F52 %30.10 in10.0 miVariable3.5 mphClear
9:51 PM66.0 °F48.0 °F52 %30.10 in10.0 miWest (260°)4.6 mphClear
10:51 PM66.0 °F48.0 °F52 %30.10 in10.0 miSW (230°)3.5 mphClear
11:51 PM64.0 °F51.1 °F63 %30.11 in10.0 miVariable3.5 mphClear
Hourly data recorded from KNYC, located miles away from New York - Upper East Side, New York







STORIES FROM OUR PARTNERS